[[{"header":{"parameterUnit":"m.s-1","parameterCategory":1,"la1":30.2991,"la2":30.254,"lo1":-89.0895,"lo2":-89.0444,"dy":0.0017,"dx":0.0017,"nx":28,"ny":28,"refTime":"2025-07-03T03:00:00:Z","depth":0,"parameterNumber":2,"parameterNumberName":"U-component_of_WINDS"},"data":[0,0,0,0,0,0,0,0,0,0,0,0,0,0,0,0,0,0,0,0,0,0,0,0,0,0,0,0,0,0,0,0,0,0,0,0,0,0,0,0,0,0,0,0,0,0,0,0,0,0,0,0,0,0,0,0,0,0,-0.9325,-0.9324,0,-0.9279,-0.9279,-0.9278,-0.9163,-0.9161,-0.9158,-0.9156,-0.9114,-0.9115,-0.9116,0,0,0,0,0,0,0,0,0,0,0,0,0,-0.9316,-0.9316,-0.9325,-0.9324,-0.9324,-0.9279,-0.9279,-0.9278,-0.9164,-0.9161,-0.9158,-0.9155,-0.9113,-0.9115,-0.9116,0,0,0,0,0,0,0,0,0,0,0,0,0,-0.93,-0.9317,-0.9325,-0.9261,-0.9255,-0.9279,-0.9279,-0.9278,-0.9164,-0.9161,-0.9157,-0.9154,-0.9113,-0.9115,-0.9116,-0.92,0,0,-0.9121,-0.9122,0,0,0,0,0,0,0,0,-0.9301,-0.93,-0.9271,-0.9266,-0.9259,-0.9223,-0.926,-0.9252,-0.9165,-0.9199,-0.9156,-0.9152,-0.9153,-0.9151,-0.9151,-0.9198,-0.9196,-0.9122,-0.9123,-0.9123,-0.9124,0,0,0,0,0,0,0,-0.9302,-0.9302,-0.9307,-0.9271,-0.9263,-0.9236,-0.9229,-0.9258,-0.9197,-0.9196,-0.9187,-0.9183,-0.9149,-0.915,-0.9149,-0.9196,-0.9122,-0.9123,-0.9124,-0.9125,-0.9308,-0.9312,0,0,0,0,0,0,-0.9312,-0.9303,-0.9308,-0.9305,-0.9271,-0.9239,-0.9232,-0.9238,-0.9197,-0.9187,-0.9186,-0.9178,-0.9149,-0.9147,-0.9147,-0.9243,-0.9123,-0.9125,-0.9126,-0.9304,-0.9309,-0.9313,0,0,0,0,0,0,-0.9312,-0.9314,-0.931,-0.9302,-0.9299,-0.9243,-0.9251,-0.9239,-0.924,-0.919,-0.9179,-0.9198,-0.9146,-0.9145,-0.9187,-0.924,-0.9126,-0.9127,-0.93,-0.9306,-0.9311,-0.9434,0,0,0,0,0,0,-0.9312,-0.9314,-0.9345,-0.9304,-0.93,-0.9351,-0.9254,-0.9241,-0.9242,-0.9231,-0.9197,-0.9188,-0.9143,-0.9185,-0.9189,-0.924,-0.9129,-0.9295,-0.9302,-0.9309,-0.9425,-0.9444,-0.9459,0,0,0,0,0,-0.9313,-0.9383,-0.9347,-0.9349,-0.9338,-0.9354,-0.9352,-0.9297,-0.9247,-0.9278,-0.9246,-0.9189,-0.9233,-0.9191,-0.9194,-0.9246,-0.9291,-0.93,-0.9309,-0.9418,-0.944,-0.9459,0,0,0,0,0,0,-0.9434,-0.9376,-0.9336,-0.9395,-0.938,-0.9334,-0.9372,-0.9322,-0.9323,-0.9312,-0.9245,-0.9238,-0.929,-0.9272,-0.9226,-0.9324,-0.9253,-0.9263,-0.9335,-0.9355,-0.9372,-0.9376,-0.913,0,0,0,0,0,-0.9467,-0.9484,-0.9433,-0.949,-0.9484,-0.943,-0.9435,-0.9393,-0.9375,-0.9369,-0.934,-0.9326,-0.9336,-0.9344,-0.9351,-0.9421,-0.9413,-0.9459,-0.9476,-0.949,-0.9499,-0.9535,-0.9555,-0.9342,-0.9341,-0.9341,0,0,-0.9537,-0.9507,-0.9523,-0.9514,-0.9497,-0.9517,-0.9425,-0.945,-0.9465,-0.9373,-0.9411,-0.9389,-0.9369,-0.9426,-0.9449,-0.9412,-0.9556,-0.9501,-0.9512,-0.9514,-0.9546,-0.9566,-0.9584,-0.9347,-0.9346,-0.9345,0,0,-0.9674,-0.9653,-0.9698,-0.9683,-0.9658,-0.9621,-0.9632,-0.9593,-0.9574,-0.9611,-0.9542,-0.9559,-0.9578,-0.9566,-0.9563,-0.9693,-0.9642,-0.9697,-0.9787,-0.9822,-0.9839,-0.9853,-0.9901,-0.9918,-0.9707,-0.9707,-0.9707,0,-0.9765,-0.9791,-0.9728,-0.9757,-0.9755,-0.9671,-0.9716,-0.9704,-0.9684,-0.9685,-0.9643,-0.9665,-0.9645,-0.9698,-0.973,-0.9729,-0.974,-0.9702,-0.9841,-0.9855,-0.9868,-0.9912,-0.993,-0.9714,-0.9713,-0.9713,-0.9712,0,-0.9903,-0.9922,-0.9962,-0.9942,-0.9944,-0.9982,-0.9925,-0.9935,-0.9893,-0.986,-0.9898,-0.9871,-0.9871,-0.988,-0.984,-0.9927,-0.9904,-0.9853,-0.978,-0.9896,-0.9937,-0.9953,-0.9724,-0.9722,-0.972,-0.9718,0,0,-1.0119,-1.0062,-1.0077,-1.0067,-1.0033,-1.0047,-1.008,-1.0077,-1.0088,-1.0076,-1.0103,-1.012,-1.0071,-1.0067,-1.0025,-1.0056,-1.0161,-1.0,-0.9998,-1.0032,-1.0256,-1.0296,-1.0316,-1.0126,-1.0129,-1.0131,-1.0258,0,-1.0248,-1.0301,-1.0244,-1.0309,-1.0326,-1.0245,-1.0273,-1.0256,-1.0226,-1.0237,-1.0203,-1.0217,-1.0152,-1.0149,-1.0176,-1.0143,-1.0206,-1.0133,-1.0151,-1.0153,-1.016,-1.0337,-1.038,-1.0501,-1.0273,-1.0276,-1.0278,0,-1.0408,-1.0401,-1.0467,-1.0427,-1.0432,-1.0459,-1.0452,-1.0463,-1.0441,-1.0417,-1.0412,-1.0359,-1.039,-1.0317,-1.0358,-1.031,-1.0314,-1.0299,-1.0302,-1.0303,-1.0224,-1.0344,-1.0538,-1.0557,-1.0302,-1.03,-1.0298,0,-1.0559,-1.0567,-1.0607,-1.0601,-1.0555,-1.0576,-1.0558,-1.0532,-1.0534,-1.0528,-1.0529,-1.0527,-1.0527,-1.0526,-1.0475,-1.0427,-1.0523,-1.0446,-1.0505,-1.0506,-1.053,-1.053,-1.0729,-1.0531,-1.053,-1.053,-1.053,0,-1.0711,-1.0755,-1.0674,-1.07,-1.0746,-1.068,-1.0728,-1.0702,-1.068,-1.0699,-1.0628,-1.0648,-1.0578,-1.0591,-1.055,-1.0591,-1.0591,-1.0573,-1.0562,-1.058,-1.0583,-1.0583,-1.0574,-1.0535,-1.0534,-1.0533,-1.0532,0,-1.0889,-1.0837,-1.0875,-1.0828,-1.0817,-1.0853,-1.0813,-1.0835,-1.0799,-1.0824,-1.0826,-1.0771,-1.0781,-1.0729,-1.0731,-1.0704,-1.0765,-1.0739,-1.0772,-1.0765,-1.0827,-1.0822,-1.1034,-1.1059,-1.0845,-1.0847,-1.0848,0,-1.099,-1.1022,-1.0977,-1.0983,-1.0969,-1.0981,-1.0982,-1.0918,-1.0922,-1.0898,-1.0923,-1.0927,-1.0928,-1.0948,-1.0909,-1.091,-1.0884,-1.0958,-1.0884,-1.0901,-1.0887,-1.0886,-1.0889,-1.0975,-1.0978,-1.098,-1.0981,0,-1.1176,-1.1147,-1.1151,-1.1145,-1.1147,-1.114,-1.1128,-1.1138,-1.1069,-1.1077,-1.1086,-1.1086,-1.1087,-1.1092,-1.1085,-1.1067,-1.1014,-1.1004,-1.1018,-1.1038,-1.1056,-1.1048,-1.0816,-1.1001,-1.0999,-1.0997,-1.0996,-1.0995,-1.1319,-1.1342,-1.1314,-1.132,-1.1304,-1.1294,-1.1311,-1.1277,-1.1283,-1.1277,-1.1239,-1.1255,-1.1232,-1.1216,-1.1203,-1.1215,-1.118,-1.12,-1.1205,-1.1211,-1.1223,-1.1053,-1.1213,-1.1213,-1.1212,-1.1212,-1.1211,0,-1.1501,-1.1478,-1.1484,-1.1468,-1.1473,-1.1419,-1.1403,-1.1411,-1.1426,-1.1407,-1.1408,-1.1418,-1.1423,-1.1383,-1.1382,-1.14,-1.1375,-1.1402,-1.1401,-1.1397,-1.1254,-1.1242,-1.1422,-1.1422,-1.1422,-1.1421,-1.1421,-1.1421,-1.1596,-1.1634,-1.1602,-1.1631,-1.1608,-1.1622,-1.1617,-1.1608,-1.1593,-1.1607,-1.1609,-1.1582,-1.1555,-1.1552,-1.1554,-1.1542,-1.1545,-1.1581,-1.1561,-1.1428,-1.1408,-1.1388,-1.1377,-1.1582,-1.1582,-1.1703,-1.1705,-1.1705]},{"header":{"parameterUnit":"m.s-1","parameterCategory":1,"la1":30.2991,"la2":30.254,"lo1":-89.0895,"lo2":-89.0444,"dy":0.0017,"dx":0.0017,"nx":28,"ny":28,"refTime":"2025-07-03T03:00:00:Z","depth":0,"parameterNumber":3,"parameterNumberName":"V-component_of_WINDS"},"data":[0,0,0,0,0,0,0,0,0,0,0,0,0,0,0,0,0,0,0,0,0,0,0,0,0,0,0,0,0,0,0,0,0,0,0,0,0,0,0,0,0,0,0,0,0,0,0,0,0,0,0,0,0,0,0,0,0,0,-2.6663,-2.6663,0,-2.6699,-2.6699,-2.67,-2.6658,-2.6656,-2.6655,-2.6653,-2.6687,-2.6689,-2.6691,0,0,0,0,0,0,0,0,0,0,0,0,0,-2.6555,-2.6557,-2.6663,-2.6663,-2.6664,-2.6699,-2.6699,-2.67,-2.6658,-2.6656,-2.6654,-2.6652,-2.6686,-2.6689,-2.6692,0,0,0,0,0,0,0,0,0,0,0,0,0,-2.6597,-2.6558,-2.6663,-2.6647,-2.6646,-2.6699,-2.6699,-2.67,-2.6658,-2.6656,-2.6654,-2.6651,-2.6685,-2.6689,-2.6692,-2.6761,0,0,-2.6703,-2.6704,0,0,0,0,0,0,0,0,-2.6595,-2.6601,-2.6649,-2.6648,-2.6647,-2.6671,-2.6673,-2.672,-2.6659,-2.6654,-2.6653,-2.665,-2.6683,-2.6687,-2.6699,-2.6762,-2.6764,-2.6703,-2.6705,-2.6707,-2.6708,0,0,0,0,0,0,0,-2.6592,-2.6599,-2.6677,-2.665,-2.6649,-2.6637,-2.6641,-2.6682,-2.6681,-2.6654,-2.6651,-2.6656,-2.6682,-2.6695,-2.6699,-2.6764,-2.6703,-2.6706,-2.6708,-2.671,-2.6884,-2.6886,0,0,0,0,0,0,-2.6591,-2.6597,-2.6676,-2.6678,-2.6615,-2.6641,-2.6645,-2.6666,-2.6681,-2.6681,-2.6658,-2.6654,-2.669,-2.6695,-2.67,-2.678,-2.6707,-2.671,-2.6712,-2.6881,-2.6884,-2.6887,0,0,0,0,0,0,-2.6589,-2.6599,-2.6674,-2.6637,-2.6646,-2.6646,-2.6669,-2.6668,-2.6681,-2.6684,-2.6683,-2.6672,-2.6689,-2.6695,-2.6746,-2.6781,-2.6712,-2.6715,-2.6878,-2.6882,-2.6886,-2.6942,0,0,0,0,0,0,-2.6586,-2.6598,-2.6625,-2.6638,-2.6648,-2.6721,-2.6672,-2.667,-2.6687,-2.6682,-2.6696,-2.6696,-2.6687,-2.6741,-2.6749,-2.6784,-2.6718,-2.6875,-2.688,-2.6885,-2.6937,-2.6947,-2.6956,0,0,0,0,0,-2.6582,-2.6639,-2.6627,-2.6636,-2.6682,-2.6723,-2.6728,-2.6718,-2.669,-2.6717,-2.6718,-2.6696,-2.6776,-2.6746,-2.6755,-2.6792,-2.6873,-2.6879,-2.6884,-2.6932,-2.6945,-2.6955,0,0,0,0,0,0,-2.6629,-2.664,-2.6627,-2.6689,-2.6706,-2.6716,-2.6748,-2.6732,-2.6755,-2.6749,-2.6735,-2.6738,-2.6792,-2.6797,-2.6764,-2.6859,-2.682,-2.6827,-2.6853,-2.6865,-2.6874,-2.6871,-2.6721,0,0,0,0,0,-2.6647,-2.6681,-2.6688,-2.6742,-2.6751,-2.6749,-2.6766,-2.6757,-2.6773,-2.6779,-2.6784,-2.6799,-2.6828,-2.6847,-2.6873,-2.6937,-2.6939,-2.6967,-2.6977,-2.6985,-2.6991,-2.7024,-2.7036,-2.6906,-2.6906,-2.6906,0,0,-2.6684,-2.6694,-2.6716,-2.6752,-2.6764,-2.6797,-2.6755,-2.6792,-2.6817,-2.6784,-2.6832,-2.6837,-2.6853,-2.691,-2.6936,-2.6916,-2.7028,-2.6992,-2.6998,-2.7,-2.7031,-2.7044,-2.7055,-2.691,-2.6909,-2.6908,0,0,-2.6768,-2.678,-2.6826,-2.6838,-2.6856,-2.6854,-2.6865,-2.6878,-2.688,-2.6928,-2.6904,-2.6932,-2.6982,-2.6994,-2.7007,-2.7095,-2.7074,-2.7104,-2.7153,-2.7185,-2.7196,-2.7205,-2.7235,-2.7246,-2.7111,-2.7111,-2.7111,0,-2.6811,-2.6862,-2.6851,-2.6891,-2.6907,-2.688,-2.6926,-2.6938,-2.6963,-2.6974,-2.6953,-2.7014,-2.7023,-2.7082,-2.7103,-2.7115,-2.7126,-2.7102,-2.7195,-2.7204,-2.7212,-2.7241,-2.7253,-2.7114,-2.7114,-2.7113,-2.7113,0,-2.6913,-2.6949,-2.6984,-2.701,-2.703,-2.7073,-2.7067,-2.7088,-2.7077,-2.7077,-2.7126,-2.7135,-2.7163,-2.7176,-2.7166,-2.7234,-2.7221,-2.7198,-2.7158,-2.7228,-2.7255,-2.7266,-2.7119,-2.7118,-2.7117,-2.7116,0,0,-2.7028,-2.7047,-2.706,-2.7071,-2.7089,-2.7116,-2.7157,-2.7184,-2.7202,-2.7221,-2.7253,-2.7296,-2.7274,-2.7288,-2.7279,-2.7307,-2.7375,-2.728,-2.728,-2.7296,-2.7449,-2.7466,-2.7479,-2.7362,-2.7364,-2.7366,-2.7448,0,-2.7111,-2.7183,-2.7174,-2.7242,-2.7274,-2.7248,-2.7284,-2.7298,-2.7298,-2.7325,-2.7325,-2.7355,-2.7325,-2.7333,-2.736,-2.7361,-2.7405,-2.7355,-2.7391,-2.7392,-2.7387,-2.7493,-2.7511,-2.7588,-2.7458,-2.746,-2.7461,0,-2.7218,-2.7241,-2.7312,-2.7324,-2.7337,-2.7369,-2.7393,-2.742,-2.7434,-2.7433,-2.7449,-2.7434,-2.7473,-2.7434,-2.7487,-2.7453,-2.7467,-2.747,-2.7472,-2.7474,-2.743,-2.7497,-2.7612,-2.7623,-2.7478,-2.7476,-2.7475,0,-2.7293,-2.7341,-2.739,-2.74,-2.7416,-2.7439,-2.7446,-2.7459,-2.7476,-2.7497,-2.7507,-2.7532,-2.7546,-2.7565,-2.7556,-2.7529,-2.7611,-2.7571,-2.7609,-2.761,-2.7627,-2.7626,-2.7745,-2.7638,-2.7638,-2.7638,-2.7637,0,-2.7386,-2.743,-2.7424,-2.7453,-2.7502,-2.7491,-2.7539,-2.7543,-2.7554,-2.7584,-2.7563,-2.7591,-2.7579,-2.7605,-2.7599,-2.7643,-2.7649,-2.7648,-2.7646,-2.765,-2.765,-2.7658,-2.7652,-2.7641,-2.764,-2.7639,-2.7639,0,-2.7477,-2.7475,-2.7526,-2.7537,-2.7541,-2.7576,-2.7584,-2.7611,-2.7611,-2.7648,-2.7656,-2.7654,-2.7684,-2.7678,-2.7711,-2.7707,-2.7762,-2.7753,-2.7757,-2.7755,-2.7793,-2.7789,-2.7921,-2.7937,-2.7821,-2.7822,-2.7823,0,-2.7536,-2.757,-2.7585,-2.7603,-2.7612,-2.7643,-2.766,-2.765,-2.7669,-2.7688,-2.7713,-2.7741,-2.7763,-2.7812,-2.7813,-2.7838,-2.7829,-2.7873,-2.7832,-2.7835,-2.7828,-2.7826,-2.7828,-2.7881,-2.7882,-2.7884,-2.7884,0,-2.7641,-2.7638,-2.7665,-2.7691,-2.7712,-2.7732,-2.7749,-2.7765,-2.7757,-2.7779,-2.7809,-2.7827,-2.786,-2.7888,-2.7911,-2.7917,-2.7899,-2.7898,-2.7907,-2.7911,-2.7911,-2.791,-2.7778,-2.7894,-2.7893,-2.7893,-2.7892,-2.7892,-2.7717,-2.7746,-2.776,-2.779,-2.7802,-2.7819,-2.7845,-2.7848,-2.7874,-2.7901,-2.7893,-2.7928,-2.7941,-2.797,-2.7979,-2.8005,-2.7988,-2.8003,-2.8006,-2.801,-2.8014,-2.7908,-2.8009,-2.8009,-2.8009,-2.8009,-2.8008,0,-2.782,-2.7828,-2.7856,-2.7881,-2.7904,-2.7887,-2.7905,-2.7925,-2.7956,-2.797,-2.7993,-2.8027,-2.8054,-2.8058,-2.8083,-2.8103,-2.8095,-2.811,-2.8107,-2.8109,-2.8028,-2.8017,-2.8115,-2.8115,-2.8115,-2.8115,-2.8115,-2.8115,-2.7876,-2.7923,-2.7921,-2.7973,-2.7981,-2.8015,-2.8027,-2.8042,-2.8053,-2.8093,-2.8116,-2.8118,-2.8128,-2.8153,-2.8177,-2.8177,-2.8186,-2.8204,-2.8201,-2.8125,-2.8115,-2.8104,-2.8093,-2.8206,-2.8207,-2.8279,-2.8279,-2.828]}]]